N6306Q KSAN-KBUR

Flight info

Callsign N6306Q
Flight time 0h 32m
Altitude 14000
Route SLI
Aircraft TBM9/L-G/L

Departure

Time 2026-04-25 21:40
Airport San Diego International Airport (KSAN)

Arrival

Time 2026-04-25 22:13
Airport Hollywood Burbank/Bob Hope Airport (KBUR)
Time Latitude Longitude Altitude Speed Heading
2026-04-25 21:32 32.73321 -117.17770 18 ft 0 kts 176°
2026-04-25 21:37 32.73318 -117.17769 18 ft 1 kts 144°
2026-04-25 21:37 32.73345 -117.17810 19 ft 0 kts 290°
2026-04-25 21:39 32.73368 -117.17914 21 ft 22 kts 269°
2026-04-25 21:39 32.73251 -117.17977 18 ft 20 kts 158°
2026-04-25 21:39 32.73181 -117.17761 18 ft 36 kts 106°
2026-04-25 21:39 32.73061 -117.17691 16 ft 24 kts 242°
2026-04-25 21:40 32.73112 -117.18030 14 ft 74 kts 291°
2026-04-25 21:40 32.73333 -117.18804 201 ft 120 kts 286°
2026-04-25 21:40 32.73681 -117.19848 372 ft 154 kts 291°
2026-04-25 21:40 32.74095 -117.21078 699 ft 166 kts 290°
2026-04-25 21:41 32.74531 -117.22388 1042 ft 174 kts 291°
2026-04-25 21:41 32.75203 -117.23616 1374 ft 177 kts 306°
2026-04-25 21:41 32.75961 -117.24765 1695 ft 176 kts 303°
2026-04-25 21:41 32.76657 -117.25977 2001 ft 178 kts 300°
2026-04-25 21:42 32.77335 -117.27193 2383 ft 171 kts 301°
2026-04-25 21:42 32.77968 -117.28318 3001 ft 158 kts 301°
2026-04-25 21:42 32.78563 -117.29374 3616 ft 150 kts 301°
2026-04-25 21:42 32.79138 -117.30402 4206 ft 154 kts 301°
2026-04-25 21:43 32.79742 -117.31482 4828 ft 160 kts 302°
2026-04-25 21:43 32.80428 -117.32556 5451 ft 166 kts 305°
2026-04-25 21:43 32.81140 -117.33662 6074 ft 171 kts 304°
2026-04-25 21:43 32.81868 -117.34796 6696 ft 174 kts 304°
2026-04-25 21:44 32.82608 -117.35941 7300 ft 175 kts 303°
2026-04-25 21:44 32.83357 -117.37106 7905 ft 181 kts 303°
2026-04-25 21:44 32.85114 -117.39857 8009 ft 232 kts 303°
2026-04-25 21:45 32.86129 -117.41429 8001 ft 246 kts 304°
2026-04-25 21:45 32.86828 -117.42511 7985 ft 251 kts 304°
2026-04-25 21:45 32.88271 -117.44743 7984 ft 257 kts 304°
2026-04-25 21:45 32.89350 -117.46417 7989 ft 259 kts 304°
2026-04-25 21:46 32.90450 -117.48123 7993 ft 260 kts 304°
2026-04-25 21:46 32.91552 -117.49836 7986 ft 260 kts 304°
2026-04-25 21:46 32.92652 -117.51547 7988 ft 260 kts 304°
2026-04-25 21:46 32.93753 -117.53259 7984 ft 261 kts 304°
2026-04-25 21:47 32.94856 -117.54978 7984 ft 261 kts 304°
2026-04-25 21:47 32.95958 -117.56693 7983 ft 260 kts 304°
2026-04-25 21:47 32.97059 -117.58411 7982 ft 260 kts 304°
2026-04-25 21:47 32.98159 -117.60126 7984 ft 260 kts 304°
2026-04-25 21:48 32.99244 -117.61819 7978 ft 261 kts 304°
2026-04-25 21:48 33.00359 -117.63560 7979 ft 261 kts 304°
2026-04-25 21:48 33.01447 -117.65261 7979 ft 261 kts 304°
2026-04-25 21:48 33.02549 -117.66981 7979 ft 261 kts 304°
2026-04-25 21:49 33.03650 -117.68703 7977 ft 261 kts 304°
2026-04-25 21:49 33.04750 -117.70424 7977 ft 261 kts 304°
2026-04-25 21:49 33.05852 -117.72147 7977 ft 261 kts 304°
2026-04-25 21:49 33.07109 -117.73714 7975 ft 264 kts 317°
2026-04-25 21:50 33.08533 -117.75102 7973 ft 264 kts 316°
2026-04-25 21:50 33.09917 -117.76546 7974 ft 264 kts 315°
2026-04-25 21:50 33.11308 -117.77977 7976 ft 264 kts 316°
2026-04-25 21:50 33.12238 -117.78918 7974 ft 264 kts 316°
2026-04-25 21:51 33.14111 -117.80814 7993 ft 264 kts 316°
2026-04-25 21:51 33.15510 -117.82239 7991 ft 264 kts 316°
2026-04-25 21:51 33.16905 -117.83662 7989 ft 264 kts 316°
2026-04-25 21:51 33.18307 -117.85080 7987 ft 264 kts 318°
2026-04-25 21:52 33.19910 -117.86180 7986 ft 268 kts 335°
2026-04-25 21:52 33.21717 -117.86776 7986 ft 271 kts 346°
2026-04-25 21:52 33.23565 -117.87217 7987 ft 271 kts 345°
2026-04-25 21:52 33.25406 -117.87692 7986 ft 271 kts 345°
2026-04-25 21:53 33.27230 -117.88149 7989 ft 271 kts 345°
2026-04-25 21:53 33.29081 -117.88604 7988 ft 271 kts 345°
2026-04-25 21:53 33.30929 -117.89063 7988 ft 271 kts 345°
2026-04-25 21:53 33.32780 -117.89526 7987 ft 271 kts 345°
2026-04-25 21:54 33.34630 -117.89987 7990 ft 271 kts 345°
2026-04-25 21:54 33.36476 -117.90448 7988 ft 271 kts 345°
2026-04-25 21:54 33.38269 -117.91091 7986 ft 267 kts 332°
2026-04-25 21:54 33.39832 -117.92271 7986 ft 264 kts 319°
2026-04-25 21:55 33.41264 -117.93650 7984 ft 263 kts 319°
2026-04-25 21:55 33.42692 -117.94979 7991 ft 264 kts 319°
2026-04-25 21:55 33.44140 -117.96337 7988 ft 264 kts 318°
2026-04-25 21:55 33.45577 -117.97704 7988 ft 263 kts 318°
2026-04-25 21:56 33.47016 -117.99067 7991 ft 263 kts 319°
2026-04-25 21:56 33.47965 -117.99966 7999 ft 263 kts 318°
2026-04-25 21:56 33.49891 -118.01790 7995 ft 264 kts 319°
2026-04-25 21:56 33.51332 -118.03156 7998 ft 263 kts 318°
2026-04-25 21:57 33.52773 -118.04517 7998 ft 263 kts 319°
2026-04-25 21:57 33.54208 -118.05883 7991 ft 264 kts 319°
2026-04-25 21:57 33.55648 -118.07251 7987 ft 264 kts 319°
2026-04-25 21:57 33.57086 -118.08614 7987 ft 263 kts 319°
2026-04-25 21:58 33.58519 -118.09979 7753 ft 270 kts 319°
2026-04-25 21:58 33.59998 -118.11390 7500 ft 273 kts 319°
2026-04-25 21:58 33.61494 -118.12805 7256 ft 274 kts 319°
2026-04-25 21:58 33.62940 -118.14174 7011 ft 251 kts 319°
2026-04-25 21:59 33.64295 -118.15461 6977 ft 248 kts 319°
2026-04-25 21:59 33.65647 -118.16747 6991 ft 249 kts 319°
2026-04-25 21:59 33.67009 -118.18045 6992 ft 250 kts 319°
2026-04-25 22:00 33.69734 -118.20649 6997 ft 251 kts 319°
2026-04-25 22:00 33.71105 -118.21956 6996 ft 251 kts 319°
2026-04-25 22:00 33.72472 -118.23262 6994 ft 251 kts 319°
2026-04-25 22:00 33.73843 -118.24563 7006 ft 251 kts 319°
2026-04-25 22:01 33.75197 -118.25850 7018 ft 252 kts 319°
2026-04-25 22:01 33.76570 -118.27165 7013 ft 252 kts 319°
2026-04-25 22:01 33.77942 -118.28474 7013 ft 251 kts 319°
2026-04-25 22:01 33.78867 -118.29357 7018 ft 251 kts 319°
2026-04-25 22:02 33.80677 -118.31089 7014 ft 251 kts 319°
2026-04-25 22:02 33.82049 -118.32393 7022 ft 251 kts 319°
2026-04-25 22:02 33.83417 -118.33706 7009 ft 251 kts 319°
2026-04-25 22:02 33.84782 -118.35016 7013 ft 251 kts 319°
2026-04-25 22:03 33.86146 -118.36322 7007 ft 250 kts 319°
2026-04-25 22:03 33.87510 -118.37628 7010 ft 251 kts 319°
2026-04-25 22:03 33.88876 -118.38936 7015 ft 251 kts 318°
2026-04-25 22:03 33.90226 -118.40235 7000 ft 251 kts 318°
2026-04-25 22:04 33.91592 -118.41549 6998 ft 251 kts 319°
2026-04-25 22:04 33.92961 -118.42856 7012 ft 251 kts 320°
2026-04-25 22:04 33.94451 -118.43966 7000 ft 254 kts 329°
2026-04-25 22:04 33.96023 -118.44893 6994 ft 246 kts 330°
2026-04-25 22:05 33.97499 -118.45852 6987 ft 237 kts 327°
2026-04-25 22:05 33.98911 -118.46833 6989 ft 231 kts 327°
2026-04-25 22:05 34.00324 -118.47791 6725 ft 234 kts 328°
2026-04-25 22:05 34.01731 -118.48731 6330 ft 231 kts 328°
2026-04-25 22:06 34.03135 -118.49676 5818 ft 231 kts 329°
2026-04-25 22:06 34.04548 -118.50631 5307 ft 234 kts 329°
2026-04-25 22:06 34.05945 -118.51580 4999 ft 228 kts 330°
2026-04-25 22:06 34.07332 -118.52377 4993 ft 216 kts 339°
2026-04-25 22:07 34.08774 -118.52964 4710 ft 220 kts 342°
2026-04-25 22:07 34.09743 -118.53348 4522 ft 221 kts 341°
2026-04-25 22:07 34.11705 -118.54121 4112 ft 221 kts 341°
2026-04-25 22:07 34.13157 -118.54681 3969 ft 212 kts 341°
2026-04-25 22:08 34.14500 -118.55178 3960 ft 194 kts 341°
2026-04-25 22:08 34.15776 -118.55621 3829 ft 191 kts 348°
2026-04-25 22:08 34.17085 -118.55379 3601 ft 196 kts 29°
2026-04-25 22:08 34.18020 -118.54210 3384 ft 196 kts 60°
2026-04-25 22:09 34.18704 -118.52825 3263 ft 191 kts 62°
2026-04-25 22:09 34.19382 -118.51450 3269 ft 185 kts 62°
2026-04-25 22:09 34.19912 -118.50100 3113 ft 175 kts 79°
2026-04-25 22:09 34.20031 -118.48661 2710 ft 172 kts 94°
2026-04-25 22:10 34.19966 -118.47276 2468 ft 165 kts 97°
2026-04-25 22:10 34.19912 -118.45867 2242 ft 169 kts 97°
2026-04-25 22:10 34.19892 -118.44935 2101 ft 154 kts 96°
2026-04-25 22:10 34.19879 -118.43727 1896 ft 137 kts 96°
2026-04-25 22:11 34.19864 -118.42637 1729 ft 122 kts 95°
2026-04-25 22:11 34.19860 -118.41676 1570 ft 109 kts 99°
2026-04-25 22:11 34.19842 -118.40774 1422 ft 108 kts 103°
2026-04-25 22:11 34.19827 -118.39860 1271 ft 110 kts 100°
2026-04-25 22:12 34.19825 -118.38942 1118 ft 111 kts 97°
2026-04-25 22:12 34.19797 -118.37982 971 ft 115 kts 92°
2026-04-25 22:12 34.19792 -118.37063 788 ft 103 kts 91°
2026-04-25 22:12 34.19785 -118.36522 724 ft 87 kts 91°
2026-04-25 22:13 34.19819 -118.36028 718 ft 17 kts
2026-04-25 22:13 34.19861 -118.36026 717 ft 6 kts 338°
2026-04-25 22:13 34.19892 -118.36132 717 ft 22 kts 276°
2026-04-25 22:13 34.19928 -118.36373 722 ft 34 kts 289°
2026-04-25 22:14 34.20011 -118.36406 724 ft 17 kts 65°
2026-04-25 22:14 34.19994 -118.36368 724 ft 1 kts 182°